Year,Month,Day,Hour,Minute,Value (Times are PST for temperature in C)
2011,10,22,09,13,10.30
2011,10,22,09,14,10.30
2011,10,22,09,15,10.40
2011,10,22,09,16,10.40
2011,10,22,09,17,10.40
2011,10,22,09,18,10.40
2011,10,22,09,19,10.60
2011,10,22,09,20,10.60
2011,10,22,09,21,10.60
2011,10,22,09,22,10.70
2011,10,22,09,23,10.80
2011,10,22,09,24,10.80
2011,10,22,09,25,10.80
2011,10,22,09,26,10.90
2011,10,22,09,27,10.90
2011,10,22,09,28,10.90
2011,10,22,09,29,10.90
2011,10,22,09,30,11.00
2011,10,22,09,31,11.10
2011,10,22,09,32,11.10
2011,10,22,09,33,11.10
2011,10,22,09,34,11.20
2011,10,22,09,35,11.20
2011,10,22,09,36,11.20
2011,10,22,09,37,11.30
2011,10,22,09,38,11.40
2011,10,22,09,39,11.40
2011,10,22,09,40,11.50
2011,10,22,09,41,11.60
2011,10,22,09,42,11.60
2011,10,22,09,43,11.60
2011,10,22,09,44,11.60
2011,10,22,09,45,11.60
2011,10,22,09,46,11.60
2011,10,22,09,47,11.70
2011,10,22,09,48,11.70
2011,10,22,09,49,11.60
2011,10,22,09,50,11.60
2011,10,22,09,51,11.60
2011,10,22,09,52,11.60
2011,10,22,09,53,11.60
2011,10,22,09,54,11.60
2011,10,22,09,55,11.60
2011,10,22,09,56,11.60
2011,10,22,09,57,11.60
2011,10,22,09,58,11.50
2011,10,22,09,59,11.40
2011,10,22,10,00,11.40
2011,10,22,10,01,11.40
2011,10,22,10,02,11.40
2011,10,22,10,03,11.40
2011,10,22,10,04,11.40
2011,10,22,10,05,11.50
2011,10,22,10,06,11.60
2011,10,22,10,07,11.60
2011,10,22,10,08,11.70
2011,10,22,10,09,11.70
2011,10,22,10,10,11.80
2011,10,22,10,11,11.80
2011,10,22,10,12,11.80
2011,10,22,10,13,11.80
2011,10,22,10,14,11.80
2011,10,22,10,15,11.80
2011,10,22,10,16,11.70
2011,10,22,10,17,11.70
2011,10,22,10,18,11.70
2011,10,22,10,19,11.70
2011,10,22,10,20,11.70
2011,10,22,10,21,11.70
2011,10,22,10,22,11.80
2011,10,22,10,23,11.80
2011,10,22,10,24,11.80
2011,10,22,10,25,11.80
2011,10,22,10,26,11.80
2011,10,22,10,27,11.90
2011,10,22,10,28,11.90
2011,10,22,10,29,11.90
2011,10,22,10,30,11.90
2011,10,22,10,31,11.90
2011,10,22,10,32,11.90
2011,10,22,10,33,11.90
2011,10,22,10,34,11.90
2011,10,22,10,35,11.90
2011,10,22,10,36,11.80
2011,10,22,10,37,11.80
2011,10,22,10,38,11.90
2011,10,22,10,39,11.90
2011,10,22,10,40,11.90
2011,10,22,10,41,12.00
2011,10,22,10,42,12.00
2011,10,22,10,43,12.00
2011,10,22,10,44,12.10
2011,10,22,10,45,12.10
2011,10,22,10,46,12.20
2011,10,22,10,47,12.20
2011,10,22,10,48,12.20
2011,10,22,10,49,12.20
2011,10,22,10,50,12.20
2011,10,22,10,51,12.20
2011,10,22,10,52,12.20
2011,10,22,10,53,12.20
2011,10,22,10,54,12.20
2011,10,22,10,55,12.20
2011,10,22,10,56,12.10
2011,10,22,10,57,12.10
2011,10,22,10,58,12.10
2011,10,22,10,59,12.10
2011,10,22,11,00,12.00
2011,10,22,11,01,11.90
2011,10,22,11,02,11.80
2011,10,22,11,03,11.80
2011,10,22,11,04,11.70
2011,10,22,11,05,11.60
2011,10,22,11,06,11.60
2011,10,22,11,07,11.60
2011,10,22,11,08,11.50
2011,10,22,11,09,11.40
2011,10,22,11,10,11.40
2011,10,22,11,11,11.40
2011,10,22,11,12,11.40
2011,10,22,11,13,11.40
2011,10,22,11,14,11.40
2011,10,22,11,15,11.40
2011,10,22,11,16,11.40
2011,10,22,11,17,11.40
2011,10,22,11,18,11.40
2011,10,22,11,19,11.40
2011,10,22,11,20,11.40
2011,10,22,11,21,11.30
2011,10,22,11,22,11.30
2011,10,22,11,23,11.30
2011,10,22,11,24,11.30
2011,10,22,11,25,11.30
2011,10,22,11,26,11.30
2011,10,22,11,27,11.30
2011,10,22,11,28,11.40
2011,10,22,11,29,11.40
2011,10,22,11,30,11.40
2011,10,22,11,31,11.40
2011,10,22,11,32,11.40
2011,10,22,11,33,11.30
2011,10,22,11,34,11.30
2011,10,22,11,35,11.30
2011,10,22,11,36,11.30
2011,10,22,11,37,11.30
2011,10,22,11,38,11.30
2011,10,22,11,39,11.20
2011,10,22,11,40,11.30
2011,10,22,11,41,11.40
2011,10,22,11,42,11.50
2011,10,22,11,43,11.60
2011,10,22,11,44,11.60
2011,10,22,11,45,11.60
2011,10,22,11,46,11.60
2011,10,22,11,47,11.60
2011,10,22,11,48,11.50
2011,10,22,11,49,11.40
2011,10,22,11,50,11.40
2011,10,22,11,51,11.40
2011,10,22,11,52,11.40
2011,10,22,11,53,11.40
2011,10,22,11,54,11.40
2011,10,22,11,55,11.40
2011,10,22,11,56,11.40
2011,10,22,11,57,11.40
2011,10,22,11,58,11.40
2011,10,22,11,59,11.40
2011,10,22,12,00,11.50
2011,10,22,12,01,11.60
2011,10,22,12,02,11.60
2011,10,22,12,03,11.50
2011,10,22,12,04,11.40
2011,10,22,12,05,11.50
2011,10,22,12,06,11.60
2011,10,22,12,07,11.60
2011,10,22,12,08,11.60
2011,10,22,12,09,11.50
2011,10,22,12,10,11.40
2011,10,22,12,11,11.40
2011,10,22,12,12,11.40
2011,10,22,12,13,11.40
2011,10,22,12,14,11.60
2011,10,22,12,15,11.60
2011,10,22,12,16,11.60
2011,10,22,12,17,11.60
2011,10,22,12,18,11.60
2011,10,22,12,19,11.60
2011,10,22,12,20,11.60
2011,10,22,12,21,11.60
2011,10,22,12,22,11.60
2011,10,22,12,23,11.60
2011,10,22,12,24,11.60
2011,10,22,12,25,11.60
2011,10,22,12,26,11.60
2011,10,22,12,27,11.60
2011,10,22,12,28,11.60
2011,10,22,12,29,11.60
2011,10,22,12,30,11.50
2011,10,22,12,31,11.40
2011,10,22,12,32,11.40
2011,10,22,12,33,11.40
2011,10,22,12,34,11.40
2011,10,22,12,35,11.40
2011,10,22,12,36,11.40
2011,10,22,12,37,11.30
2011,10,22,12,38,11.30
2011,10,22,12,39,11.30
2011,10,22,12,40,11.30
2011,10,22,12,41,11.30
2011,10,22,12,42,11.30
2011,10,22,12,43,11.40
2011,10,22,12,44,11.40
2011,10,22,12,45,11.40
2011,10,22,12,46,11.40
2011,10,22,12,47,11.40
2011,10,22,12,48,11.40
2011,10,22,12,49,11.40
2011,10,22,12,50,11.50
2011,10,22,12,51,11.60
2011,10,22,12,52,11.60
2011,10,22,12,53,11.60
2011,10,22,12,54,11.50
2011,10,22,12,55,11.40
2011,10,22,12,56,11.40
2011,10,22,12,57,11.40
2011,10,22,12,58,11.40
2011,10,22,12,59,11.40
2011,10,22,13,00,11.50
2011,10,22,13,01,11.60
2011,10,22,13,02,11.60
2011,10,22,13,03,11.60
2011,10,22,13,04,11.60
2011,10,22,13,05,11.60
2011,10,22,13,06,11.60
2011,10,22,13,07,11.60
2011,10,22,13,08,11.60
2011,10,22,13,09,11.60
2011,10,22,13,10,11.60
2011,10,22,13,11,11.60
2011,10,22,13,12,11.60
2011,10,22,13,13,11.60
2011,10,22,13,14,11.60
2011,10,22,13,15,11.60
2011,10,22,13,16,11.60
2011,10,22,13,17,11.60
2011,10,22,13,18,11.60
2011,10,22,13,19,11.60
2011,10,22,13,20,11.60
2011,10,22,13,21,11.60
2011,10,22,13,22,11.60
2011,10,22,13,23,11.60
2011,10,22,13,24,11.60
2011,10,22,13,25,11.60
2011,10,22,13,26,11.60
2011,10,22,13,27,11.60
2011,10,22,13,28,11.60
2011,10,22,13,29,11.60
2011,10,22,13,30,11.60
2011,10,22,13,45,11.70
2011,10,22,13,46,11.70
2011,10,22,13,47,11.70
2011,10,22,13,48,11.70
2011,10,22,13,49,11.80
2011,10,22,13,50,11.80
2011,10,22,13,51,11.80
2011,10,22,13,52,11.80
2011,10,22,13,53,11.80
2011,10,22,13,54,11.80
2011,10,22,13,55,11.80
2011,10,22,13,56,11.80
2011,10,22,13,57,11.80
2011,10,22,13,58,11.80
2011,10,22,13,59,11.80
2011,10,22,14,00,11.80
2011,10,22,14,01,11.80
2011,10,22,14,02,11.80
2011,10,22,14,03,11.80
2011,10,22,14,04,11.70
2011,10,22,14,05,11.60
2011,10,22,14,06,11.60
2011,10,22,14,07,11.60
2011,10,22,14,08,11.60
2011,10,22,14,09,11.60
2011,10,22,14,10,11.60
2011,10,22,14,11,11.60
2011,10,22,14,12,11.60
2011,10,22,14,13,11.60
2011,10,22,14,14,11.60
2011,10,22,14,15,11.60
2011,10,22,14,47,12.40
2011,10,22,14,48,12.40
2011,10,22,14,49,12.50
2011,10,22,14,50,12.50
2011,10,22,14,51,12.40
2011,10,22,14,52,12.40
2011,10,22,14,53,12.40
2011,10,22,14,54,12.30
2011,10,22,14,55,12.30
2011,10,22,14,56,12.30
2011,10,22,14,57,12.30
2011,10,22,14,58,12.30
2011,10,22,14,59,12.30
2011,10,22,15,00,12.30
2011,10,22,15,01,12.30
2011,10,22,15,02,12.30
2011,10,22,15,03,12.30
2011,10,22,15,04,12.20
2011,10,22,15,05,12.20
2011,10,22,15,06,12.20
2011,10,22,15,07,12.20
2011,10,22,15,08,12.20
2011,10,22,15,09,12.20
2011,10,22,15,10,12.20
2011,10,22,15,11,12.20
2011,10,22,15,12,12.20
2011,10,22,15,13,12.20
2011,10,22,15,14,12.30
2011,10,22,15,15,12.30
2011,10,22,15,16,12.30
2011,10,22,15,17,12.30
2011,10,22,15,18,12.30
2011,10,22,15,19,12.30
2011,10,22,15,20,12.30
2011,10,22,15,21,12.30
2011,10,22,15,22,12.30
2011,10,22,15,23,12.30
2011,10,22,15,24,12.30
2011,10,22,15,25,12.30
2011,10,22,15,26,12.30
2011,10,22,15,27,12.30
2011,10,22,15,28,12.40
2011,10,22,15,29,12.40
2011,10,22,15,30,12.40
2011,10,22,15,31,12.40
2011,10,22,15,32,12.40
2011,10,22,15,33,12.50
2011,10,22,15,34,12.50
2011,10,22,15,35,12.50
2011,10,22,15,36,12.50
2011,10,22,15,37,12.40
2011,10,22,15,38,12.40
2011,10,22,15,39,12.40
2011,10,22,15,40,12.50
2011,10,22,15,41,12.50
2011,10,22,15,42,12.50
2011,10,22,15,43,12.50
2011,10,22,15,44,12.50
2011,10,22,15,45,12.50
2011,10,22,15,46,12.50
2011,10,22,15,47,12.50
2011,10,22,15,48,12.50
2011,10,22,15,49,12.50
2011,10,22,15,50,12.50
2011,10,22,15,51,12.50
2011,10,22,15,52,12.50
2011,10,22,15,53,12.50
2011,10,22,15,54,12.50
2011,10,22,15,55,12.40
2011,10,22,15,56,12.40
2011,10,22,15,57,12.50
2011,10,22,15,58,12.50
2011,10,22,15,59,12.50
2011,10,22,16,00,12.60
2011,10,22,16,01,12.60
2011,10,22,16,02,12.60
2011,10,22,16,03,12.60
2011,10,22,16,04,12.60
2011,10,22,16,05,12.60
2011,10,22,16,06,12.60
2011,10,22,16,07,12.50
2011,10,22,16,08,12.60
2011,10,22,16,09,12.60
2011,10,22,16,10,12.60
2011,10,22,16,11,12.60
2011,10,22,16,12,12.60
2011,10,22,16,13,12.60
2011,10,22,16,14,12.60
2011,10,22,16,15,12.60
2011,10,22,16,16,12.60
2011,10,22,16,17,12.60
2011,10,22,16,18,12.60
2011,10,22,16,19,12.70
2011,10,22,16,20,12.70
2011,10,22,16,21,12.70
2011,10,22,16,22,12.70
2011,10,22,16,23,12.70
2011,10,22,16,24,12.70
2011,10,22,16,25,12.70
2011,10,22,16,26,12.80
2011,10,22,16,27,12.70
2011,10,22,16,28,12.70
2011,10,22,16,29,12.70
2011,10,22,16,30,12.60
2011,10,22,16,31,12.60
2011,10,22,16,32,12.60
2011,10,22,16,33,12.60
2011,10,22,16,34,12.50
2011,10,22,16,35,12.50
2011,10,22,16,36,12.40
2011,10,22,16,37,12.40
2011,10,22,16,38,12.40
2011,10,22,16,39,12.40
2011,10,22,16,40,12.40
2011,10,22,16,41,12.40
2011,10,22,16,42,12.40
2011,10,22,16,43,12.40
2011,10,22,16,44,12.40
2011,10,22,16,45,12.40
2011,10,22,16,46,12.40
2011,10,22,16,47,12.40
2011,10,22,16,48,12.30
2011,10,22,16,49,12.30
2011,10,22,16,50,12.40
2011,10,22,16,51,12.40
2011,10,22,16,52,12.40
2011,10,22,16,53,12.50
2011,10,22,16,54,12.50
2011,10,22,16,55,12.50
2011,10,22,16,56,12.50
2011,10,22,16,57,12.50
2011,10,22,16,58,12.50
2011,10,22,16,59,12.50
2011,10,22,17,00,12.50
2011,10,22,17,01,12.50
2011,10,22,17,02,12.50
2011,10,22,17,03,12.50
2011,10,22,17,04,12.50
2011,10,22,17,05,12.50
2011,10,22,17,06,12.60
2011,10,22,17,07,12.60
2011,10,22,17,08,12.60
2011,10,22,17,09,12.60
2011,10,22,17,10,12.60
2011,10,22,17,11,12.60
2011,10,22,17,12,12.60
2011,10,22,17,13,12.60
2011,10,22,17,14,12.60
2011,10,22,17,15,12.60
2011,10,22,17,16,12.60
2011,10,22,17,17,12.70
2011,10,22,17,18,12.70
2011,10,22,17,19,12.70
2011,10,22,17,20,12.60
2011,10,22,17,21,12.60
2011,10,22,17,22,12.60
2011,10,22,17,23,12.60
2011,10,22,17,24,12.60
2011,10,22,17,25,12.60
2011,10,22,17,26,12.60
2011,10,22,17,27,12.60
2011,10,22,17,28,12.60
2011,10,22,17,29,12.70
2011,10,22,17,30,12.70
2011,10,22,17,31,12.70
2011,10,22,17,32,12.70
2011,10,22,17,33,12.60
2011,10,22,17,34,12.60
2011,10,22,17,35,12.60
2011,10,22,17,36,12.60
2011,10,22,17,37,12.60
2011,10,22,17,38,12.60
2011,10,22,17,39,12.60
2011,10,22,17,40,12.60
2011,10,22,17,41,12.70
2011,10,22,17,42,12.70
2011,10,22,17,43,12.60
2011,10,22,17,44,12.60
2011,10,22,17,45,12.60
2011,10,22,17,46,12.60
2011,10,22,17,47,12.60
2011,10,22,17,48,12.60
2011,10,22,17,49,12.60
2011,10,22,17,50,12.60
2011,10,22,17,51,12.60
2011,10,22,17,52,12.60
2011,10,22,17,53,12.60
2011,10,22,17,54,12.60
2011,10,22,17,55,12.60
2011,10,22,17,56,12.60
2011,10,22,17,57,12.60
2011,10,22,17,58,12.60
2011,10,22,17,59,12.60
2011,10,22,18,00,12.60
2011,10,22,18,01,12.60
2011,10,22,18,02,12.60
2011,10,22,18,03,12.60
2011,10,22,18,04,12.60
2011,10,22,18,05,12.60
2011,10,22,18,06,12.60
